Starlink 31747

operational
NORAD ID: 59564 Int'l Des: 2024-076 Owner: SPXS Country: US Constellation: starlink
LEOCIRCULAR

Starlink 31747について

説明を読み込み中...

リアルタイム位置

3D地球を読み込み中...

次回通過

高度履歴

Altitude vs Time

uPlot chart will show altitude changes over time

軌道要素

1 59564U 24076A 25306.43842185 .00001278 00000-0 55968-4 0 9994
2 59564 43.0025 357.0650 0001075 267.1307 92.9421 15.27562746 87153
Epoch: Nov 2, 2025 • Age: 11 hours

現在のステータス

高度 495.6 km
速度 7.62 km/s
衛星直下点 -42.97°S, 88.24°W
打ち上げ日 Apr 23, 2024
運用期間 1.5 years
タイプ internet

技術仕様

分類 Payload
質量 730.00 kg
乾燥質量 700.00 kg
総質量 730.00 kg
長さ 0.30 m
直径 4.10 m
スパン 29.00 m
形状 Box + pan
製造者 SPXS
バスタイプ Starlink V2M
フェーズステータス In Orbit
所有者/国 SPXS/US

大規模コンステレーション

Loading constellations...